Location: ??????
(41.3747°N, 22.5491°E)
Time: 15:50:24
(UTC+00:00)

X-37B - Pass Details

Date: 01 December 2020
Orbit: 384 x 390 km, 45.0° (Epoch: 02 January)

Event Time Altitude Azimuth Distance (km) Brightness Sun altitude
Rises 15:49:05 0° 254° (WSW) 2,256 6.8 -9.0°
Reaches altitude 10° 15:51:09 10° 256° (WSW) 1,406 5.0 -9.3°
Maximum altitude 15:54:18 73° 341° (NNW) 406 0.6 -9.9°
Enters shadow 15:56:44 16° 66° (ENE) 1,109 2.2 -10.3°
